Powrót do katalogu

NOAA 16 DEB

AktywnySSO
NORAD 41080·DEBRIS·🇺🇸 United States

Wystrzelony Sep 21, 2000 z Vandenberg Space Force Base

Loading…

Następne Przeloty (najbliższe 24 godziny)

TLE

ŚwieżeSource: Space-Track

Epoka: Sep 13, 2026, 01:22 UTC

1 41080U 00055AP  26256.05706627  .00001576  00000-0  70609-3 0  9991
2 41080  98.5148 296.1394 0007980 336.8447  23.2372 14.23904220557398

Śledź NOAA 16 DEB w czasie rzeczywistym z AllMySat

Download on the App Store